CZ-6A DEB, 54293

Orbit data source: Space-Track

CZ-6A DEB, 54293 is space debris in SSO originally from a launch on Fri, 11 Nov 2022 UTC launched from the Taiyaun Space Center, China (TSC). Debris objects in space refer to the collection of defunct objects orbiting the Earth. Examples of debris include non-operational satellites, rocket bodies, and fragments generated from explosions, collisions, or faulty payload assembly.

Loading next visibility...
Identifier
54293, 2022-151AL
Orbit
SSO
Country
Flag of CNCN / PRC
Related business
Manufacturer
SAST
Mission
Spacecraft
Bus & Motor
Unknown
Mass
Unknown
Launch date (UTC)
2022-11-11 (3 years ago)
Launch vehicle
Unknown
Launch site
Taiyaun Space Center, China (TSC)
Object type
Payload
Rocket body
Debris
Shape & HBR
Unknown shape, 0.2 m
Radar Cross Section
Small (<0.1 m²)

Expand to show TLE details & history
Last TLE update: 12 hours ago

TLE from 12 hours ago
0 CZ-6A DEB
1 54293U 22151AL  26130.02874813  .00000249  00000-0  12634-3 0  9993
2 54293  98.7565 155.0571 0038942 237.4816 122.2598 14.24259554180791
Epoch: 2026-05-10T00:41Z
TLE epoch observation values (Epoch: 2026-05-10T00:41:23.838Z)
Latitude
0.00003°
Longitude
-83.12993°
Altitude
828.926 km
Speed
7.431 km/s
True Right ascension
10h 20m 13s
True Declination
0° 00' 00"
Sunlit
Object was in daylight at epoch
Visualization orbit readout
Latitude
Unknown
Longitude
Unknown
Altitude
Unknown
Speed
Unknown
Apparent Right ascension
Unknown
Apparent Declination
Unknown
Sunlit
N/A
Visualization observer readout
Local Sidereal Time
20:39:17
Azimuth
Unknown
Elevation
Unknown
Doppler factor
Unknown
Orbital elements
Apogee altitude
836.123 km
Perigee altitude
780.154 km
Semi-major axis
7,186.275 km
Eccentricity
0.00389
Inclination
98.7565°
RAAN
155.0571°
Arg. of periapsis
237.4816°
True anomaly
122.63618°
Mean anomaly
122.2598°
Eccentric anomaly
122.44809°
Mean motion
3.56277 °/min
Orbital period
101.05 mins
BSTAR
0.00012634
Loading maneuver chart data...
Computing Atmospheric mass density...
Loading historical data...
Loading historical data...
Loading historical data...
Loading historical data...
Loading historical data...
Loading historical data...
Loading historical data...

Documentation

Showing up to 5 results
|